Lid_Strength_Index
8 11 13 13 12 12 13 14 14 13 12 13 13 12 11 10 10 10 9 9 8 7 5 4 3 2 2 1 1 1 2 1 3 4 5 6 6 6 5 5 5 6 6 7
10 13 13 12 13 13 13 14 13 13 13 13 12 12 11 11 10 10 9 9 8 7 6 5 4 3 2 1 1 1 1 1 2 4 4 5 6 6 6 5 5 6 6 8
12 13 13 13 13 14 14 14 14 15 13 12 13 13 13 11 10 10 9 8 8 7 7 6 4 3 2 1 1 1 1 1 1 2 3 4 5 5 6 6 6 6 6 8
12 13 14 13 14 13 14 13 14 15 14 15 13 15 13 12 12 11 10 9 8 7 6 5 5 3 2 1 0 0 0 1 1 1 3 4 6 7 7 6 6 6 6 6
14 13 13 13 14 13 14 14 14 14 14 15 15 15 13 13 13 11 10 9 8 7 7 6 5 4 2 1 1 0 0 1 0 1 1 3 5 6 6 6 6 6 6 6
13 12 12 13 13 13 13 14 14 14 14 15 16 16 12 13 13 11 10 9 9 8 7 6 6 4 3 2 1 0 0 1 0 0 1 2 4 6 7 6 6 6 6 6
13 13 12 12 13 12 11 12 13 14 14 15 17 16 13 11 11 11 11 10 9 8 8 7 7 6 4 3 2 1 1 1 0 0 1 1 3 5 6 7 6 6 7 7
12 13 13 13 13 14 14 13 14 18 16 15 16 16 11 11 10 10 10 9 9 9 8 8 7 6 5 3 2 2 2 1 1 1 1 1 2 4 5 6 7 7 7 8
12 13 13 13 13 13 13 14 14 17 17 17 13 14 11 11 11 11 10 10 10 9 9 9 8 7 5 4 3 2 2 2 1 1 1 1 2 3 5 6 6 7 7 7
12 13 13 14 12 13 13 13 15 13 17 18 14 15 13 12 11 10 10 10 10 9 9 9 8 7 6 5 4 3 3 2 2 1 1 2 2 3 4 6 7 6 6 7
11 13 13 14 14 13 14 14 14 14 15 16 17 14 9 11 11 11 10 10 10 10 9 9 8 7 6 5 4 3 3 3 2 2 2 2 2 2 3 5 6 7 6 7
11 12 13 13 13 12 13 13 14 15 16 15 16 14 10 10 10 10 10 10 10 10 9 9 9 8 7 6 5 5 4 4 3 3 3 3 2 2 3 5 5 6 6 6
11 12 13 13 13 13 14 13 13 14 14 15 15 12 10 11 10 9 10 10 10 10 10 9 9 8 8 7 6 6 5 5 4 4 3 3 3 3 3 4 5 6 6 6
11 11 12 12 11 12 14 14 13 14 15 13 14 12 10 9 10 9 10 10 10 10 10 10 9 9 8 8 7 7 6 6 5 5 4 4 3 3 3 4 5 6 6 6
10 12 12 11 11 12 13 14 13 15 14 15 12 14 11 10 11 11 10 11 11 11 11 10 10 9 9 8 8 8 7 7 6 6 5 4 4 3 3 3 4 5 7 6
11 12 12 13 12 13 14 12 12 13 13 15 15 14 9 9 10 11 11 11 11 11 11 10 10 10 10 9 9 9 8 8 7 7 7 5 5 4 3 4 4 5 6 7
11 12 13 14 13 13 13 11 11 12 12 13 14 13 8 10 10 9 10 10 10 10 10 10 10 10 9 9 9 9 9 8 8 8 8 7 6 5 5 4 4 5 6 7
11 12 13 14 12 20 10 10 10 11 10 10 11 10 9 9 8 8 8 9 10 10 10 10 9 10 9 9 9 9 9 9 9 9 9 8 7 6 6 5 5 5 6 7
10 11 13 15 14 11 10 10 12 12 10 8 9 9 8 9 10 8 9 9 9 9 9 9 9 9 9 9 9 9 9 9 9 9 9 9 8 7 7 7 6 5 6 7
12 11 12 14 16 18 10 11 10 10 12 8 8 8 8 10 10 8 9 9 9 9 9 9 9 9 9 9 9 9 9 9 10 10 9 9 8 8 7 7 7 6 7 7
14 13 15 14 15 12 8 11 11 13 10 7 8 8 8 9 7 8 8 9 9 9 9 9 9 10 9 9 9 10 10 10 9 9 9 9 8 8 7 7 7 7 7 7
12 13 14 13 15 16 9 12 12 6 6 6 7 7 7 7 7 8 9 9 9 9 9 9 10 10 9 9 9 10 10 9 9 9 9 9 8 8 8 8 8 8 8 9
13 10 10 10 10 7 9 7 7 7 7 6 7 6 7 7 8 8 8 9 9 9 9 9 10 10 10 10 10 10 10 9 10 10 10 10 9 8 8 8 8 9 9 9
9 8 11 11 8 8 7 7 7 7 7 7 6 7 7 8 7 8 8 8 9 9 9 9 10 10 10 10 10 10 10 10 10 11 10 10 10 9 8 8 8 9 9 9
8 9 10 10 8 7 7 6 6 6 6 6 7 7 7 7 8 7 8 8 8 9 9 9 10 10 10 10 10 10 10 10 11 11 11 10 10 10 9 8 8 9 8 9
8 9 10 10 6 6 6 5 5 6 6 6 7 7 7 7 8 7 7 7 8 9 9 10 10 10 10 10 10 10 10 10 11 11 11 11 11 10 9 9 9 11 11 12